timestamp,surface_pressure_avg,surface_temp_avg,battery_voltage,lat,long
2019-07-03 00:00:00+00:00,388.7112,7.9,13.05,47.84626,-54.09684
2019-07-03 00:10:00+00:00,382.3946,8.0,12.97,47.84626,-54.09684
2019-07-03 00:20:00+00:00,380.2878,7.9,12.97,47.84626,-54.09684
2019-07-03 00:30:00+00:00,380.5546,7.9,12.97,47.84626,-54.09684
2019-07-03 00:40:00+00:00,372.1746,7.98,12.97,47.84626,-54.09684
2019-07-03 00:50:00+00:00,364.5197,8.0,12.97,47.84626,-54.09684
2019-07-03 01:00:00+00:00,363.7079,7.96,12.97,47.84626,-54.09684
2019-07-03 01:10:00+00:00,358.5546,8.15,12.89,47.84626,-54.09684
2019-07-03 01:20:00+00:00,347.798,8.49,12.97,47.84626,-54.09684
2019-07-03 01:30:00+00:00,339.413,8.6,12.97,47.84626,-54.09684
2019-07-03 01:40:00+00:00,337.4746,8.16,12.97,47.84626,-54.09684
2019-07-03 01:50:00+00:00,334.0613,7.96,12.97,47.84626,-54.09684
2019-07-03 02:00:00+00:00,320.2197,8.32,12.89,47.84626,-54.09684
2019-07-03 02:10:00+00:00,310.1047,8.4,12.81,47.84626,-54.09684
2019-07-03 02:20:00+00:00,307.4564,8.2,12.89,47.84626,-54.09684
2019-07-03 02:30:00+00:00,300.873,8.34,12.97,47.84626,-54.09684
2019-07-03 02:40:00+00:00,284.7664,8.88,12.97,47.84626,-54.09684
2019-07-03 02:50:00+00:00,276.2596,9.08,12.97,47.84626,-54.09684
2019-07-03 03:00:00+00:00,274.4847,9.0,12.89,47.84626,-54.09684
2019-07-03 03:10:00+00:00,263.9964,9.05,12.81,47.84626,-54.09684
2019-07-03 03:20:00+00:00,249.6731,9.1,12.89,47.84626,-54.09684
2019-07-03 03:30:00+00:00,242.8114,9.1,12.89,47.84626,-54.09684
2019-07-03 03:40:00+00:00,238.7931,9.19,12.97,47.84626,-54.09684
2019-07-03 03:50:00+00:00,228.7664,9.28,12.97,47.84626,-54.09684
2019-07-03 04:00:00+00:00,217.5114,9.4,12.89,47.84626,-54.09684
2019-07-03 04:10:00+00:00,214.7147,9.5,12.81,47.84626,-54.09684
2019-07-03 04:20:00+00:00,211.7464,9.57,12.89,47.84626,-54.09684
2019-07-03 04:30:00+00:00,202.6631,9.66,12.89,47.84626,-54.09684
2019-07-03 04:40:00+00:00,194.1981,9.74,12.97,47.84626,-54.09684
2019-07-03 04:50:00+00:00,192.3782,9.8,12.97,47.84626,-54.09684
2019-07-03 05:00:00+00:00,192.1765,9.8,12.89,47.84626,-54.09684
2019-07-03 05:10:00+00:00,184.9514,9.9,12.81,47.84626,-54.09684
2019-07-03 05:20:00+00:00,179.1248,9.97,12.89,47.84626,-54.09684
2019-07-03 05:30:00+00:00,181.7231,9.96,12.89,47.84626,-54.09684
2019-07-03 05:40:00+00:00,184.4981,9.9,12.89,47.84626,-54.09684
2019-07-03 05:50:00+00:00,183.4715,9.9,12.97,47.84626,-54.09684
2019-07-03 06:00:00+00:00,184.5798,9.99,12.89,47.84626,-54.09684
2019-07-03 06:10:00+00:00,189.5748,10.0,12.81,47.84626,-54.09684
2019-07-03 06:20:00+00:00,193.6115,9.96,12.89,47.84626,-54.09684
2019-07-03 06:30:00+00:00,194.1497,9.9,12.89,47.84626,-54.09684
2019-07-03 06:40:00+00:00,196.7631,9.9,12.89,47.84626,-54.09684
2019-07-03 06:50:00+00:00,201.8948,9.96,12.89,47.84626,-54.09684
2019-07-03 07:00:00+00:00,202.9531,10.0,12.81,47.84626,-54.09684
2019-07-03 07:10:00+00:00,204.7698,10.1,12.81,47.84626,-54.09684
2019-07-03 07:20:00+00:00,208.9547,10.16,12.89,47.84626,-54.09684
2019-07-03 07:30:00+00:00,212.2248,10.2,12.89,47.84626,-54.09684
2019-07-03 07:40:00+00:00,215.4615,10.1,12.89,47.84626,-54.09684
2019-07-03 07:50:00+00:00,219.7631,10.09,12.89,47.84626,-54.09684
2019-07-03 08:00:00+00:00,224.3131,10.0,12.81,47.84626,-54.09684
2019-07-03 08:10:00+00:00,229.0164,10.0,12.73,47.84626,-54.09684
2019-07-03 08:20:00+00:00,234.1448,9.99,12.81,47.84626,-54.09684
2019-07-03 08:30:00+00:00,238.8331,10.0,12.81,47.84626,-54.09684
2019-07-03 08:40:00+00:00,244.6398,10.04,12.89,47.84626,-54.09684
2019-07-03 08:50:00+00:00,252.6997,10.1,12.89,47.84626,-54.09684
2019-07-03 09:00:00+00:00,260.8364,10.1,12.81,47.84626,-54.09684
2019-07-03 09:10:00+00:00,264.9964,10.14,12.73,47.84626,-54.09684
2019-07-03 09:20:00+00:00,272.7764,10.2,12.81,47.84626,-54.09684
2019-07-03 09:30:00+00:00,284.3714,10.2,12.89,47.84626,-54.09684
2019-07-03 09:40:00+00:00,290.7114,10.27,12.89,47.84626,-54.09684
2019-07-03 09:50:00+00:00,292.9363,10.39,12.97,47.84626,-54.09684
2019-07-03 10:00:00+00:00,302.2714,10.44,12.89,47.84626,-54.09684
2019-07-03 10:10:00+00:00,313.5063,10.5,12.81,47.84626,-54.09684
2019-07-03 10:20:00+00:00,317.1863,10.6,12.89,47.84626,-54.09684
2019-07-03 10:30:00+00:00,320.8912,9.96,12.89,47.84626,-54.09684
2019-07-03 10:40:00+00:00,328.6546,9.5,12.89,47.84626,-54.09684
2019-07-03 10:50:00+00:00,336.2363,9.71,12.97,47.84626,-54.09684
2019-07-03 11:00:00+00:00,338.7796,9.85,12.89,47.84626,-54.09684
2019-07-03 11:10:00+00:00,341.0863,9.53,12.81,47.84626,-54.09684
2019-07-03 11:20:00+00:00,346.4329,9.6,12.97,47.84626,-54.09684
2019-07-03 11:30:00+00:00,348.3713,9.5,12.97,47.84626,-54.09684
2019-07-03 11:40:00+00:00,345.3696,9.49,13.05,47.84626,-54.09684
2019-07-03 11:50:00+00:00,347.1429,9.66,13.13,47.84626,-54.09684
2019-07-03 12:00:00+00:00,350.6562,9.6,13.05,47.84626,-54.09684
2019-07-03 12:10:00+00:00,349.4196,9.62,13.05,47.84626,-54.09684
2019-07-03 12:20:00+00:00,345.6846,10.1,13.21,47.84626,-54.09684
2019-07-03 12:30:00+00:00,344.6296,10.1,13.21,47.84626,-54.09684
2019-07-03 12:40:00+00:00,344.1462,9.7,13.29,47.84626,-54.09684
2019-07-03 12:50:00+00:00,341.058,9.95,13.29,47.84626,-54.09684
2019-07-03 13:00:00+00:00,334.9163,10.4,13.29,47.84626,-54.09684
2019-07-03 13:10:00+00:00,330.2079,10.4,13.21,47.84626,-54.09684
2019-07-03 13:20:00+00:00,329.008,10.0,13.37,47.84626,-54.09684
2019-07-03 13:30:00+00:00,323.5647,10.0,13.53,47.84626,-54.09684
2019-07-03 13:40:00+00:00,317.8897,10.36,13.68,47.84626,-54.09684
2019-07-03 13:50:00+00:00,312.103,10.69,13.76,47.84626,-54.09684
2019-07-03 14:00:00+00:00,306.2214,10.82,13.84,47.84626,-54.09684
2019-07-03 14:10:00+00:00,298.3464,10.9,13.92,47.84626,-54.09684
2019-07-03 14:20:00+00:00,290.6213,10.91,14.08,47.84626,-54.09684
2019-07-03 14:30:00+00:00,284.2081,10.99,14.24,47.84626,-54.09684
2019-07-03 14:40:00+00:00,274.6097,11.0,14.24,47.84626,-54.09684
2019-07-03 14:50:00+00:00,268.9247,11.0,14.24,47.84626,-54.09684
2019-07-03 15:00:00+00:00,262.4298,11.09,14.08,47.84626,-54.09684
2019-07-03 15:10:00+00:00,258.9948,11.11,14.08,47.84626,-54.09684
2019-07-03 15:20:00+00:00,251.1564,11.17,14.32,47.84626,-54.09684
2019-07-03 15:30:00+00:00,241.5864,11.23,14.32,47.84626,-54.09684
2019-07-03 15:40:00+00:00,233.3281,11.3,14.32,47.84626,-54.09684
2019-07-03 15:50:00+00:00,229.1847,11.39,14.32,47.84626,-54.09684
2019-07-03 16:00:00+00:00,218.9731,11.49,14.32,47.84626,-54.09684
2019-07-03 16:10:00+00:00,207.7164,11.53,14.24,47.84626,-54.09684
2019-07-03 16:20:00+00:00,202.1765,11.6,14.32,47.84626,-54.09684
2019-07-03 16:30:00+00:00,197.4898,11.7,14.24,47.84626,-54.09684
2019-07-03 16:40:00+00:00,190.5048,11.79,14.24,47.84626,-54.09684
2019-07-03 16:50:00+00:00,184.9582,11.85,14.24,47.84626,-54.09684
2019-07-03 17:00:00+00:00,183.0781,11.9,14.16,47.84626,-54.09684
2019-07-03 17:10:00+00:00,180.1198,12.0,14.0,47.84626,-54.09684
2019-07-03 17:20:00+00:00,177.6265,12.05,14.08,47.84626,-54.09684
2019-07-03 17:30:00+00:00,175.2865,12.1,14.08,47.84626,-54.09684
2019-07-03 17:40:00+00:00,173.4282,12.19,14.08,47.84626,-54.09684
2019-07-03 17:50:00+00:00,174.1448,12.2,14.08,47.84626,-54.09684
2019-07-03 18:00:00+00:00,176.8115,12.25,14.0,47.84626,-54.09684
2019-07-03 18:10:00+00:00,179.3115,12.28,13.92,47.84626,-54.09684
2019-07-03 18:20:00+00:00,180.7982,12.3,14.0,47.84626,-54.09684
2019-07-03 18:30:00+00:00,184.3931,12.3,14.08,47.84626,-54.09684
2019-07-03 18:40:00+00:00,189.2248,12.3,14.08,47.84626,-54.09684
2019-07-03 18:50:00+00:00,193.1515,12.3,14.08,47.84626,-54.09684
2019-07-03 19:00:00+00:00,196.9882,12.33,14.0,47.84626,-54.09684
2019-07-03 19:10:00+00:00,203.8914,12.34,14.0,47.84626,-54.09684
2019-07-03 19:20:00+00:00,209.8648,12.35,14.08,47.84626,-54.09684
2019-07-03 19:30:00+00:00,213.4514,12.37,14.08,47.84626,-54.09684
2019-07-03 19:40:00+00:00,219.6581,12.38,14.08,47.84626,-54.09684
2019-07-03 19:50:00+00:00,227.3264,12.38,14.0,47.84626,-54.09684
2019-07-03 20:00:00+00:00,232.5247,12.37,13.92,47.84626,-54.09684
2019-07-03 20:10:00+00:00,235.8981,12.38,13.76,47.84626,-54.09684
2019-07-03 20:20:00+00:00,239.9197,12.38,13.84,47.84626,-54.09684
2019-07-03 20:30:00+00:00,247.2081,12.35,13.76,47.84626,-54.09684
2019-07-03 20:40:00+00:00,255.0814,12.3,13.76,47.84626,-54.09684
2019-07-03 20:50:00+00:00,260.7498,12.3,13.76,47.84626,-54.09684
2019-07-03 21:00:00+00:00,264.9981,12.3,13.68,47.84626,-54.09684
2019-07-03 21:10:00+00:00,272.0197,12.29,13.53,47.84626,-54.09684
2019-07-03 21:20:00+00:00,281.9064,12.2,13.53,47.84626,-54.09684
2019-07-03 21:30:00+00:00,289.428,12.04,13.53,47.84626,-54.09684
2019-07-03 21:40:00+00:00,296.6764,12.09,13.53,47.84626,-54.09684
2019-07-03 21:50:00+00:00,306.0164,12.1,13.44,47.84626,-54.09684
2019-07-03 22:00:00+00:00,317.5547,12.16,13.37,47.84626,-54.09684
2019-07-03 22:10:00+00:00,326.2029,12.2,13.21,47.84626,-54.09684
2019-07-03 22:20:00+00:00,334.8796,12.2,13.21,47.84626,-54.09684
2019-07-03 22:30:00+00:00,343.673,12.27,13.21,47.84626,-54.09684
2019-07-03 22:40:00+00:00,348.2746,12.3,13.21,47.84626,-54.09684
2019-07-03 22:50:00+00:00,353.5229,12.3,13.21,47.84626,-54.09684
2019-07-03 23:00:00+00:00,362.2296,12.3,13.05,47.84626,-54.09684
2019-07-03 23:10:00+00:00,370.968,12.3,12.97,47.84626,-54.09684
2019-07-03 23:20:00+00:00,373.3978,12.3,12.97,47.84626,-54.09684
2019-07-03 23:30:00+00:00,375.3379,12.3,12.97,47.84626,-54.09684
2019-07-03 23:40:00+00:00,380.7129,12.3,12.97,47.84626,-54.09684
2019-07-03 23:50:00+00:00,383.2879,12.3,12.97,47.84626,-54.09684
